Location: Baggettsville
(36.4767°N, 86.7303°W)
Time: 23:17:31
(UTC+00:00)

SAR-Lupe-1 - Pass Details

Date: 29 October 2020
Orbit: 480 x 485 km, 98.2° (Epoch: 22 November)

Event Time Altitude Azimuth Distance (km) Brightness Sun altitude
Rises 23:41:50 0° 12° (NNE) 2,549 7.5 -10.4°
Reaches altitude 10° 23:43:54 10° 12° (NNE) 1,666 6.6 -10.8°
Maximum altitude 23:47:28 88° 288° (WNW) 488 4.0 -11.5°
Drops below altitude 10° 23:51:02 10° 194° (SSW) 1,656 7.1 -12.2°
Sets 23:53:05 0° 194° (SSW) 2,532 8.0 -12.6°
